• In Kazakhstan
  • List of Countries
  • For 7 days
  • Water Temperature
  • Satellite Maps
  • Weather Map
  • News
  • Weather Widgets
  • user-avatar
    Login

    Hourly Weather Topeka

    Today, 25 November, Saturday

    Time Temperature Precipitation Wind Pressure Humidity
    00:00 +12°C° 0 mm 5 mps 735 mmHg 47%
    01:00 +10°C° 0 mm 5 mps 735 mmHg 48%
    02:00 +10°C° 0 mm 4 mps 736 mmHg 50%
    03:00 +8°C° 0 mm 4 mps 736 mmHg 51%
    04:00 +9°C° 0 mm 3 mps 737 mmHg 52%
    05:00 +8°C° 0 mm 3 mps 737 mmHg 53%
    06:00 +7°C° 0 mm 3 mps 738 mmHg 54%
    07:00 +8°C° 0 mm 3 mps 739 mmHg 52%
    08:00 +9°C° 0 mm 3 mps 739 mmHg 49%
    09:00 +10°C° 0 mm 3 mps 740 mmHg 47%
    10:00 +11°C° 0 mm 3 mps 740 mmHg 41%
    11:00 +14°C° 0 mm 2 mps 741 mmHg 36%
    12:00 +16°C° 0 mm 2 mps 741 mmHg 31%
    13:00 +16°C° 0 mm 2 mps 741 mmHg 30%
    14:00 +16°C° 0 mm 2 mps 741 mmHg 29%
    15:00 +17°C° 0 mm 2 mps 740 mmHg 27%
    16:00 +15°C° 0 mm 1 mps 740 mmHg 31%
    17:00 +14°C° 0 mm 1 mps 741 mmHg 34%
    18:00 +11°C° 0 mm 0 mps 741 mmHg 38%
    19:00 +12°C° 0 mm 1 mps 741 mmHg 39%
    20:00 +11°C° 0 mm 1 mps 741 mmHg 40%
    21:00 +10°C° 0 mm 2 mps 742 mmHg 41%
    22:00 +9°C° 0 mm 2 mps 742 mmHg 42%
    23:00 +9°C° 0 mm 2 mps 742 mmHg 43%

    Tomorrow, 26 November, Sunday

    Time Temperature Precipitation Wind Pressure Humidity
    00:00 +9°C° 0 mm 2 mps 742 mmHg 44%
    01:00 +8°C° 0 mm 3 mps 742 mmHg 44%
    02:00 +8°C° 0 mm 3 mps 742 mmHg 45%
    03:00 +8°C° 0 mm 3 mps 742 mmHg 46%
    04:00 +8°C° 0 mm 3 mps 742 mmHg 46%
    05:00 +8°C° 0 mm 3 mps 742 mmHg 47%
    06:00 +7°C° 0 mm 3 mps 742 mmHg 48%
    07:00 +7°C° 0 mm 4 mps 742 mmHg 46%
    08:00 +8°C° 0 mm 5 mps 742 mmHg 45%
    09:00 +9°C° 0 mm 5 mps 742 mmHg 44%
    10:00 +11°C° 0 mm 6 mps 741 mmHg 40%
    11:00 +14°C° 0 mm 6 mps 741 mmHg 36%
    12:00 +16°C° 0 mm 7 mps 740 mmHg 32%
    13:00 +16°C° 0 mm 7 mps 739 mmHg 32%
    14:00 +17°C° 0 mm 7 mps 739 mmHg 32%
    15:00 +17°C° 0 mm 7 mps 738 mmHg 32%
    16:00 +16°C° 0 mm 6 mps 738 mmHg 37%
    17:00 +14°C° 0 mm 5 mps 737 mmHg 41%
    18:00 +13°C° 0 mm 4 mps 737 mmHg 46%
    19:00 +12°C° 0 mm 4 mps 737 mmHg 49%
    20:00 +12°C° 0 mm 4 mps 737 mmHg 52%
    21:00 +11°C° 0 mm 4 mps 737 mmHg 55%
    22:00 +11°C° 0 mm 4 mps 737 mmHg 58%
    23:00 +10°C° 0 mm 4 mps 736 mmHg 61%

    Day after tomorrow, 27 November, Monday

    Time Temperature Precipitation Wind Pressure Humidity
    00:00 +10°C° 0 mm 4 mps 736 mmHg 65%
    01:00 +10°C° 0 mm 4 mps 736 mmHg 67%
    02:00 +8°C° 0 mm 4 mps 736 mmHg 70%
    03:00 +8°C° 0 mm 4 mps 735 mmHg 73%
    04:00 +8°C° 0 mm 4 mps 735 mmHg 75%
    05:00 +8°C° 0 mm 4 mps 735 mmHg 77%
    06:00 +8°C° 0 mm 4 mps 735 mmHg 79%
    07:00 +9°C° 0 mm 5 mps 735 mmHg 77%
    08:00 +9°C° 0 mm 6 mps 735 mmHg 76%
    09:00 +10°C° 0 mm 6 mps 735 mmHg 74%
    10:00 +12°C° 0 mm 7 mps 734 mmHg 68%
    11:00 +16°C° 0 mm 7 mps 734 mmHg 61%
    12:00 +18°C° 0 mm 8 mps 733 mmHg 54%
    13:00 +18°C° 0 mm 8 mps 732 mmHg 53%
    14:00 +20°C° 0 mm 8 mps 731 mmHg 51%
    15:00 +21°C° 0 mm 9 mps 731 mmHg 49%
    16:00 +19°C° 0 mm 9 mps 730 mmHg 54%
    17:00 +18°C° 0 mm 9 mps 730 mmHg 59%
    18:00 +17°C° 0 mm 8 mps 729 mmHg 65%
    19:00 +17°C° 0 mm 9 mps 729 mmHg 66%
    20:00 +17°C° 0 mm 9 mps 729 mmHg 68%
    21:00 +17°C° 0 mm 10 mps 729 mmHg 70%
    22:00 +16°C° 0 mm 10 mps 729 mmHg 70%
    23:00 +16°C° 0 mm 10 mps 729 mmHg 71%

    28 November, Tuesday

    Time Temperature Precipitation Wind Pressure Humidity
    00:00 +16°C° 0 mm 10 mps 729 mmHg 72%
    01:00 +16°C° 0 mm 9 mps 729 mmHg 74%
    02:00 +16°C° 0 mm 9 mps 728 mmHg 75%
    03:00 +15°C° 0 mm 9 mps 728 mmHg 77%
    04:00 +15°C° 0 mm 7 mps 728 mmHg 80%
    05:00 +15°C° 0 mm 6 mps 729 mmHg 83%
    06:00 +14°C° 0 mm 5 mps 729 mmHg 86%
    07:00 +15°C° 0 mm 6 mps 730 mmHg 83%
    08:00 +15°C° 0 mm 6 mps 732 mmHg 80%
    09:00 +15°C° 0 mm 6 mps 733 mmHg 77%
    10:00 +14°C° 0.1 mm 7 mps 733 mmHg 70%
    11:00 +12°C° 0.1 mm 7 mps 734 mmHg 63%
    12:00 +11°C° 0.1 mm 8 mps 735 mmHg 56%
    13:00 +11°C° 0 mm 8 mps 735 mmHg 51%
    14:00 +11°C° 0 mm 8 mps 736 mmHg 47%
    15:00 +11°C° 0 mm 8 mps 736 mmHg 42%
    16:00 +11°C° 0 mm 7 mps 737 mmHg 41%
    17:00 +10°C° 0 mm 6 mps 738 mmHg 40%
    18:00 +10°C° 0 mm 6 mps 739 mmHg 39%
    19:00 +10°C° 0 mm 6 mps 740 mmHg 37%
    20:00 +9°C° 0 mm 6 mps 740 mmHg 34%
    21:00 +9°C° 0 mm 6 mps 741 mmHg 32%
    22:00 +9°C° 0 mm 6 mps 741 mmHg 32%
    23:00 +9°C° 0 mm 6 mps 741 mmHg 32%

    29 November, Wednesday

    Time Temperature Precipitation Wind Pressure Humidity
    00:00 +9°C° 0 mm 6 mps 741 mmHg 31%
    01:00 +9°C° 0 mm 6 mps 741 mmHg 33%
    02:00 +8°C° 0 mm 5 mps 741 mmHg 35%
    03:00 +8°C° 0 mm 5 mps 741 mmHg 36%
    04:00 +8°C° 0 mm 5 mps 741 mmHg 38%
    05:00 +7°C° 0 mm 5 mps 741 mmHg 40%
    06:00 +7°C° 0 mm 5 mps 740 mmHg 43%
    07:00 +7°C° 0 mm 4 mps 740 mmHg 44%
    08:00 +7°C° 0 mm 4 mps 740 mmHg 46%
    09:00 +7°C° 0 mm 4 mps 740 mmHg 48%
    10:00 +8°C° 0 mm 3 mps 740 mmHg 50%
    11:00 +9°C° 0 mm 3 mps 740 mmHg 51%
    12:00 +9°C° 0 mm 2 mps 740 mmHg 53%
    13:00 +9°C° 0 mm 2 mps 739 mmHg 54%
    14:00 +9°C° 0 mm 2 mps 739 mmHg 55%
    15:00 +10°C° 0 mm 2 mps 738 mmHg 56%
    16:00 +9°C° 0 mm 2 mps 739 mmHg 57%
    17:00 +8°C° 0 mm 2 mps 739 mmHg 58%
    18:00 +8°C° 0 mm 2 mps 739 mmHg 59%
    19:00 +8°C° 0 mm 2 mps 740 mmHg 59%
    20:00 +7°C° 0 mm 2 mps 740 mmHg 58%
    21:00 +7°C° 0 mm 2 mps 740 mmHg 57%
    22:00 +7°C° 0 mm 2 mps 741 mmHg 55%
    23:00 +5°C° 0 mm 3 mps 741 mmHg 52%

    30 November, Thursday

    Time Temperature Precipitation Wind Pressure Humidity
    00:00 +5°C° 0 mm 4 mps 742 mmHg 50%
    01:00 +5°C° 0 mm 4 mps 742 mmHg 48%
    02:00 +5°C° 0 mm 5 mps 743 mmHg 45%
    03:00 +5°C° 0 mm 5 mps 743 mmHg 43%
    04:00 +4°C° 0 mm 6 mps 744 mmHg 44%
    05:00 +4°C° 0 mm 6 mps 744 mmHg 45%
    06:00 +4°C° 0 mm 6 mps 745 mmHg 46%
    07:00 +4°C° 0 mm 7 mps 745 mmHg 46%
    08:00 +4°C° 0 mm 7 mps 746 mmHg 47%
    09:00 +4°C° 0 mm 8 mps 747 mmHg 48%
    10:00 +5°C° 0 mm 7 mps 747 mmHg 42%
    11:00 +6°C° 0 mm 7 mps 747 mmHg 37%
    12:00 +8°C° 0 mm 6 mps 748 mmHg 31%
    13:00 +8°C° 0 mm 6 mps 747 mmHg 30%
    14:00 +9°C° 0 mm 5 mps 747 mmHg 28%
    15:00 +9°C° 0 mm 5 mps 746 mmHg 27%
    16:00 +8°C° 0 mm 4 mps 746 mmHg 30%
    17:00 +7°C° 0 mm 3 mps 746 mmHg 34%
    18:00 +6°C° 0 mm 2 mps 746 mmHg 37%
    19:00 +5°C° 0 mm 2 mps 746 mmHg 39%
    20:00 +5°C° 0 mm 2 mps 747 mmHg 41%
    21:00 +5°C° 0 mm 2 mps 747 mmHg 43%
    22:00 +4°C° 0 mm 2 mps 747 mmHg 45%
    23:00 +4°C° 0 mm 2 mps 746 mmHg 47%
    Show more